TimeCDT,TemperatureF,Dew PointF,Humidity,Sea Level PressureIn,VisibilityMPH,Wind Direction,Wind SpeedMPH,Gust SpeedMPH,PrecipitationIn,Events,Conditions,WindDirDegrees,DateUTC
12:28 AM,53.6,48.2,82,29.79,10.0,NW,15.0,20.7,N/A,,Overcast,320,2013-06-02 05:28:00
12:58 AM,52.5,47.5,83,29.81,10.0,NW,11.5,-,N/A,,Overcast,310,2013-06-02 05:58:00
1:58 AM,51.3,45.1,80,29.84,10.0,NW,12.7,-,N/A,,Overcast,310,2013-06-02 06:58:00
2:43 AM,50.0,42.8,76,29.83,10.0,NNW,12.7,-,N/A,,Overcast,330,2013-06-02 07:43:00
2:58 AM,49.3,42.4,77,29.85,10.0,NW,16.1,-,N/A,,Overcast,320,2013-06-02 07:58:00
3:43 AM,48.2,41.0,76,29.86,10.0,NW,13.8,23.0,N/A,,Overcast,320,2013-06-02 08:43:00
3:58 AM,47.1,39.2,74,29.88,10.0,NNW,17.3,27.6,N/A,,Overcast,330,2013-06-02 08:58:00
4:03 AM,46.4,39.2,76,29.87,10.0,NNW,18.4,26.5,N/A,,Overcast,340,2013-06-02 09:03:00
4:08 AM,46.4,39.2,76,29.88,10.0,NNW,16.1,26.5,N/A,,Overcast,330,2013-06-02 09:08:00
4:23 AM,46.4,39.2,76,29.88,10.0,NNW,13.8,27.6,N/A,,Overcast,330,2013-06-02 09:23:00
4:58 AM,45.7,38.3,75,29.90,10.0,NW,9.2,21.9,N/A,,Overcast,320,2013-06-02 09:58:00
5:58 AM,45.7,38.5,76,29.94,10.0,NW,11.5,-,N/A,,Overcast,320,2013-06-02 10:58:00
6:58 AM,46.0,38.8,76,29.96,10.0,NW,13.8,21.9,N/A,,Overcast,310,2013-06-02 11:58:00
7:58 AM,48.7,39.7,71,29.99,10.0,NNW,17.3,23.0,N/A,,Overcast,330,2013-06-02 12:58:00
8:58 AM,50.0,41.0,71,30.01,10.0,NNW,12.7,18.4,N/A,,Mostly Cloudy,340,2013-06-02 13:58:00
9:38 AM,51.8,39.2,62,30.00,10.0,North,9.2,19.6,N/A,,Mostly Cloudy,360,2013-06-02 14:38:00
9:58 AM,50.0,39.2,66,30.02,10.0,North,11.5,-,N/A,,Mostly Cloudy,350,2013-06-02 14:58:00
10:58 AM,53.6,41.0,62,30.04,10.0,NNW,10.4,-,N/A,,Mostly Cloudy,330,2013-06-02 15:58:00
11:58 AM,55.4,42.8,63,30.05,10.0,NNW,10.4,17.3,N/A,,Mostly Cloudy,330,2013-06-02 16:58:00
12:58 PM,55.4,42.8,63,30.04,10.0,NNW,9.2,-,N/A,,Mostly Cloudy,330,2013-06-02 17:58:00
1:58 PM,59.0,42.8,55,30.04,10.0,NNW,8.1,16.1,N/A,,Mostly Cloudy,330,2013-06-02 18:58:00
2:58 PM,60.8,42.8,52,30.04,10.0,North,6.9,-,N/A,,Mostly Cloudy,360,2013-06-02 19:58:00
3:58 PM,62.6,41.0,45,30.03,10.0,NNE,6.9,-,N/A,,Partly Cloudy,20,2013-06-02 20:58:00
4:58 PM,62.2,40.6,45,30.03,10.0,NW,10.4,-,N/A,,Clear,320,2013-06-02 21:58:00
5:58 PM,62.6,41.2,45,30.02,10.0,WNW,9.2,-,N/A,,Clear,300,2013-06-02 22:58:00
6:58 PM,61.3,40.5,46,30.03,10.0,NNW,6.9,-,N/A,,Clear,330,2013-06-02 23:58:00
7:58 PM,57.9,41.9,55,30.04,10.0,NE,3.5,-,N/A,,Clear,40,2013-06-03 00:58:00
8:58 PM,50.5,43.5,77,30.04,10.0,Calm,Calm,-,N/A,,Clear,0,2013-06-03 01:58:00
9:58 PM,44.6,41.9,90,30.06,10.0,West,1.2,-,N/A,,Clear,280,2013-06-03 02:58:00
10:58 PM,42.8,42.4,99,30.05,6.0,Calm,Calm,-,N/A,,Clear,0,2013-06-03 03:58:00
11:03 PM,42.8,42.8,100,30.04,6.0,Calm,Calm,-,N/A,,Clear,0,2013-06-03 04:03:00
11:48 PM,41.0,41.0,100,30.03,1.2,Calm,Calm,-,N/A,,Clear,0,2013-06-03 04:48:00
11:53 PM,41.0,41.0,100,30.03,0.8,Calm,Calm,-,N/A,,Clear,0,2013-06-03 04:53:00
11:58 PM,41.0,41.0,100,30.05,1.0,North,-9999.0,-,N/A,,Clear,0,2013-06-03 04:58:00